THORAD DELTA 1 DEB, 42598

Orbit data source: Space-Track

THORAD DELTA 1 DEB, 42598 is space debris in SSO originally from a launch on Fri, 15 Nov 1974 UTC launched from the Air Force Western Test Range (AFWTR). Debris objects in space refer to the collection of defunct objects orbiting the Earth. Examples of debris include non-operational satellites, rocket bodies, and fragments generated from explosions, collisions, or faulty payload assembly.

Loading next visibility...
Identifier
42598, 1974-089FP
Orbit
SSO
Country
Flag of USUS
Related business
Manufacturer
Unknown
Mission
Spacecraft
Bus & Motor
Unknown
Mass
Unknown
Launch date (UTC)
1974-11-15 (51 years ago)
Launch vehicle
Unknown
Launch site
Air Force Western Test Range (AFWTR)
Object type
Payload
Rocket body
Debris
Shape & HBR
Unknown shape, 0.1 m
Radar Cross Section
Small (<0.1 m²)

Expand to show TLE details & history
Last TLE update: 2 days ago

TLE from 2 days ago
0 THORAD DELTA 1 DEB
1 42598U 74089FP  25287.26563141  .00000397  00000-0  30481-2 0  9995
2 42598 102.8115 299.5311 0183309 317.8949  40.8152 12.42791057539019
Epoch: 2025-10-14T06:22Z
TLE epoch observation values (Epoch: 2025-10-14T06:22:30.553Z)
Latitude
-0.00005°
Longitude
-179.15273°
Altitude
1,389.23 km
Speed
7.214 km/s
True Right ascension
19h 58m 07s
True Declination
0° 00' 00"
Sunlit
Object was in daylight at epoch
Visualization orbit readout
Latitude
Unknown
Longitude
Unknown
Altitude
Unknown
Speed
Unknown
Apparent Right ascension
Unknown
Apparent Declination
Unknown
Sunlit
N/A
Visualization observer readout
Local Sidereal Time
07:57:56
Azimuth
Unknown
Elevation
Unknown
Doppler factor
Unknown
Orbital elements
Apogee altitude
1,636.688 km
Perigee altitude
1,348.139 km
Semi-major axis
7,870.55 km
Eccentricity
0.01833
Inclination
102.8115°
RAAN
299.5311°
Arg. of periapsis
317.8949°
True anomaly
42.21225°
Mean anomaly
40.8152°
Eccentric anomaly
41.51129°
Mean motion
3.10839 °/min
Orbital period
115.82 mins
BSTAR
0.0030481
Loading maneuver chart data...
Computing Atmospheric mass density...

Documentation

Showing up to 5 results
|